Flag for Norway Weather past 2 weeks in Knarrevik/Straume, Norway

Now
46 °F

Rain showers. Low clouds.


Feels Like: 44 °F
Forecast: 45 / 51 °F
Wind: 5 mph from Northwest

Location: Bergen / Flesland

Current Time: May 26, 2015 at 12:07:44 PM

Latest Report: May 26, 2015 at 11:00 AM


Visibility: 7 mi

Pressure: 29.93 "Hg

Humidity: 83%

Dew point: 41 °F

Location of Knarrevik/StraumeLocation

Historic Weather in Knarrevik/Straume — Graph

°F

Knarrevik/Straume temperature yesterday

Maximum temperature yesterday: 51 °F (at 4:00 PM)
Minimum temperature yesterday: 43 °F (at 6:00 AM)
Average temperature yesterday: 47 °F

Past Weeks' High & Low Weather Summary

 TemperatureHumidityPressure
High55 °F (May 18, 7:00 PM)97% (May 22, 12:00 AM)30.16 "Hg (May 22, 12:00 AM)
Low36 °F (May 15, 4:00 AM)34% (May 19, 3:00 AM)29.23 "Hg (May 19, 8:00 AM)
Average46 °F79%29.81 "Hg
* Reported May 11 10:00 AM — May 26 10:00 AM, Knarrevik/Straume, Weather by CustomWeather, © 2015

Note: Actual official high and low records may vary slightly from our data, if they occured in-between our weather recording intervals... More about our weather records

Advertising

Knarrevik/Straume weather history for previous 24 hours

 ConditionsComfort  
Time TempWeatherWind HumidityBarometerVisibility
10:00 AM
Tue, May 26
48 °FPartly sunny.2 mph76%29.93 "Hg19 mi
9:00 AM44 °FOvercast.2 mph90%29.93 "Hg19 mi
8:00 AM44 °FRain showers. Overcast.3 mph93%29.92 "Hg3 mi
7:00 AM44 °FOvercast.1 mph90%29.91 "Hg19 mi
6:00 AM42 °FOvercast.2 mph92%29.91 "Hg18 mi
5:00 AM41 °FSunny.2 mph93%29.91 "Hg9 mi
4:00 AM42 °FClear.2 mph92%29.90 "Hg19 mi
3:00 AM43 °FClear.2 mph91%29.90 "Hg16 mi
2:00 AM43 °FLow clouds.2 mph91%29.90 "Hg15 mi
1:00 AM44 °FClear.3 mph90%29.91 "Hg14 mi
12:00 AM45 °FPassing clouds.5 mph87%29.90 "Hg15 mi
9:00 PM
Mon, May 25
48 °FOvercast.6 mph76%29.87 "Hg19 mi
8:00 PM49 °FScattered clouds.5 mph69%29.86 "Hg19 mi
7:00 PM50 °FPartly sunny.5 mph64%29.85 "Hg19 mi
6:00 PM49 °FPartly sunny.6 mph71%29.85 "Hg22 mi
5:00 PM51 °FOvercast.6 mph61%29.85 "Hg19 mi
4:00 PM51 °FScattered clouds.5 mph67%29.84 "Hg22 mi
3:00 PM51 °FScattered clouds.3 mph69%29.83 "Hg19 mi
2:00 PM48 °FOvercast.2 mph74%29.83 "Hg19 mi
1:00 PM48 °FOvercast.5 mph72%29.82 "Hg22 mi
12:00 PM49 °FOvercast.2 mph71%29.81 "Hg22 mi
Weather by CustomWeather, © 2015

See weather overviewHow to use our weather pages